Simultaneous Nadir Overpasses (SNOs) Predictions

Prediction of SNOs between GOES-14 and AQUA Satellite Orbit:

Table of predicted SNOs for the next 14.0 days since TLE Epoch: 3/8/2019
Index Date Time (GOES-14) GOES-14 Lat,Lon AQUA Lat,Lon Distance(km) Time Diff (sec)
1 03/10/2019 20:18:11 -0.07,-104.25 0.64,-100.99 370.99 80
2 03/11/2019 08:39:27 0.07,-104.41 0.46,-106.15 198.93 80
3 03/13/2019 08:29:57 0.07,-104.41 -0.18,-103.20 137.18 80
4 03/13/2019 20:51:21 -0.08,-104.27 -0.94,-108.39 468.14 80
5 03/15/2019 08:17:47 0.08,-104.41 -0.82,-100.25 473.03 80
6 03/15/2019 20:39:10 -0.08,-104.26 -0.35,-105.43 132.61 80
7 03/17/2019 20:24:20 -0.09,-104.26 0.30,-102.48 202.80 80
8 03/18/2019 08:45:35 0.09,-104.39 0.81,-107.63 369.58 80
9 03/20/2019 08:33:25 0.09,-104.39 0.16,-104.68 33.60 80
10 03/22/2019 08:23:56 0.09,-104.39 -0.50,-101.73 302.59 80
11 03/22/2019 20:45:18 -0.09,-104.27 -0.64,-106.91 300.43 80




NCC Satellite Simultaneous Nadir Overpasses (SNOs) Prediction Service
